Location: Marcé
(47.5801°N, 0.3280°W)
Time: 23:03:55
(UTC+01:00)

Transit 2A - Pass Details

Date: 04 December 2021
Orbit: 591 x 967 km, 66.7° (Epoch: 23 January)

Event Time Altitude Azimuth Distance (km) Brightness Sun altitude
Rises 06:35:00 0° 319° (NW) 3,611 - -18.9°
Exits shadow 06:38:24 - 339° (NNW) 2,762 8.5 -18.4°
Reaches altitude 10° 06:38:43 10° 341° (NNW) 2,699 8.5 -18.3°
Maximum altitude 06:42:28 16° 17° (NNE) 2,310 8.5 -17.7°
Drops below altitude 10° 06:46:13 10° 54° (NE) 2,709 9.4 -17.1°
Sets 06:49:57 0° 75° (ENE) 3,632 10.6 -16.5°
